This demonstration page uses our WeatherBlox Daily Observations layout. Learn more.

Left ArrowRight Arrow

39.92423, -83.80882

Hourly Observations for July 31, 2022

Temp ( °F °C ) Dew Point ( °F °C ) Humidity (%) Winds ( mph kmh ) Pressure ( in mb ) Visibility ( mi km ) Precip ( " mm )
12:56 am 00:56 Clear N/A N/A N/A Calm N/A 10 16 0.00 0.00
1:56 am 01:56 Clear N/A N/A N/A Calm N/A 10 16 0.00 0.00
2:56 am 02:56 Clear N/A N/A N/A NE 5 7 N/A 10 16 0.00 0.00
3:56 am 03:56 Clear 61 16 N/A N/A Calm 30.16 1021 10 16 0.00 0.00
4:56 am 04:56 Clear 63 17 N/A N/A Calm 30.15 1021 10 16 0.00 0.00
5:56 am 05:56 Clear 63 17 N/A N/A Calm 30.15 1021 10 16 0.01 0.25
6:56 am 06:56 Sunny 63 17 N/A N/A Calm 30.15 1021 10 16 0.00 0.00
7:56 am 07:56 Sunny 64 18 N/A N/A Calm 30.16 1021 10 16 0.00 0.00
8:56 am 08:56 Sunny 64 18 N/A N/A E 3 6 30.14 1021 10 16 0.00 0.00
9:56 am 09:56 Sunny 67 19.4 67 19.4 100 100 Calm 30.15 1021 10 16 0.00 0.00
10:56 am 10:56 Sunny 70 21.1 68 20 93 93 S 5 7 30.15 1021 10 16 0.00 0.00
11:56 am 11:56 Sunny 73 22.8 65 18.3 76 76 SSW 7 11 30.14 1021 10 16 0.00 0.00
12:56 pm 12:56 Mostly Sunny 74 23.3 63 17.2 69 69 Calm 30.11 1020 10 16 0.00 0.00
1:23 pm 13:23 Mostly Cloudy 75 24 66 19 74 74 undefined N/A 30.10 1019 10 16 0.00 0.00
1:53 pm 13:53 Partly Cloudy 77 25 64 18 65 65 SE 6 9 30.08 1019 10 16 0.00 0.00
1:56 pm 13:56 Partly Cloudy 76 24.4 65 18.3 69 69 SSE 5 7 30.09 1019 10 16 0.00 0.00
2:56 pm 14:56 Mostly Sunny 77 25 65 18.3 66 66 VRB 6 9 30.07 1018 10 16 0.00 0.00
3:56 pm 15:56 Mostly Cloudy 78 25.6 66 18.9 67 67 VRB 5 7 30.10 1019 10 16 0.00 0.00
4:56 pm 16:56 Mostly Cloudy 78 25.6 66 18.9 67 67 SW 8 13 30.10 1019 10 16 0.00 0.00
5:56 pm 17:56 Partly Cloudy 76 24.4 66 18.9 72 72 S 5 7 30.08 1019 10 16 0.00 0.00
6:56 pm 18:56 Cloudy 76 24.4 67 19.4 74 74 VRB 3 6 30.07 1018 10 16 0.00 0.00
7:56 pm 19:56 Cloudy 73 22.8 67 19.4 81 81 SSW 5 7 30.06 1018 10 16 0.00 0.00
8:56 pm 20:56 Mostly Cloudy 71 21.7 71 21.7 100 100 S 3 6 30.06 1018 10 16 0.00 0.00
9:56 pm 21:56 Clear 68 20 N/A N/A S 3 6 30.06 1018 10 16 0.01 0.25
10:56 pm 22:56 Clear 66 19 N/A N/A Calm 30.06 1018 10 16 0.00 0.00
11:56 pm 23:56 Clear N/A N/A N/A SSW 3 6 N/A 10 16 0.00 0.00

Powered by AerisWeather